Weather in Dobruchi

Russia / Pskov Oblast     58˚53′07″N   27˚54′54″E
temp.,
°C
wind,
m/s
gust,
m/s
humid.,
%
clouds,
%
prec.,
mm/h
press.,
hPa
HPBL,
m
15 january, fri
fri1500:00−17˚nne25956 0.0 101693
03:00−15˚nne299649 0.0 1017305
06:00−16˚nne289673 0.0 1016244
09:00−16˚nne399480 0.0 1016326
12:00−15˚nne498944 0.0 1017678
15:00−14˚n388871 0.0 1017713
18:00−15˚nne3894100 0.0 1016381
21:00−14˚nne3994100 0.0 1016371
16 january, sat
sat1600:00−14˚nne2894100 0.0 1016299
03:00−14˚ne269599 0.2 1017359
06:00−18˚ene249699 0.1 1016114
09:00−20˚ene229651 0.1 101838
12:00−18˚ne249182 0.0 1019217
15:00−15˚nne259191 0.0 1019280
18:00−16˚nne229487 0.0 101821
21:00−16˚n129684 0.0 101920
17 january, sun
sun1700:00−16˚n119718 0.0 101920
03:00−16˚wnw119610 0.0 101920
06:00−15˚wsw229722 0.0 101920
09:00−14˚wsw239725 0.0 101938
12:00−11˚wsw359478 0.0 1019181
15:00−9˚wsw369580 0.2 1019226
18:00−9˚wsw369696 0.3 1019183
21:00−9˚wsw269697 0.6 1019175
18 january, mon
mon1800:00−9˚w2397100 0.2 101985
03:00−7˚w2297100 0.3 101980
06:00−8˚wsw129798 0.1 101827
09:00−7˚wsw229794 0.3 101945
12:00−7˚wsw239784 0.1 1019137
15:00−6˚sw359575 0.1 1019245
18:00−9˚ssw259875 0.0 1019105
21:00−10˚ssw369671 0.0 1020148
19 january, tue
tue1900:00−11˚ssw379662 0.0 1020197
03:00−11˚ssw379672 0.0 1020202
06:00−11˚ssw379781 0.0 1019160
09:00−10˚ssw399786 0.1 1019224
12:00−9˚ssw4994100 0.0 1019332
15:00−8˚sw4108594 0.1 1018438
18:00−9˚ssw411890 0.0 1018341
21:00−10˚ssw4118732 0.0 1018318